Time,TemperatureF,DewpointF,PressureIn,WindDirection,WindDirectionDegrees,WindSpeedMPH,WindSpeedGustMPH,Humidity,HourlyPrecipIn,Conditions,Clouds,dailyrainin,SoftwareType,DateUTC
2013-09-27 01:13:00,78.9,74.0,29.85,SE,134,0.0,0.0,85,0.00,,,0.00,weatherlink.com 1.10,2013-09-27 05:13:00,
2013-09-27 01:26:00,78.9,74.0,29.85,SE,134,0.0,1.0,85,0.00,,,0.00,weatherlink.com 1.10,2013-09-27 05:26:00,
2013-09-27 01:41:00,78.8,74.0,29.85,SE,133,0.0,1.0,85,0.00,,,0.00,weatherlink.com 1.10,2013-09-27 05:41:00,
2013-09-27 01:56:00,78.6,74.0,29.85,SE,135,0.0,1.0,86,0.00,,,0.00,weatherlink.com 1.10,2013-09-27 05:56:00,
2013-09-27 02:11:00,78.4,74.0,29.85,SE,136,0.0,1.0,86,0.00,,,0.00,weatherlink.com 1.10,2013-09-27 06:11:00,
2013-09-27 02:26:00,77.7,74.0,29.84,SSE,168,0.0,1.0,88,0.00,,,0.00,weatherlink.com 1.10,2013-09-27 06:26:00,
2013-09-27 02:41:00,77.5,73.0,29.84,SE,127,0.0,2.0,87,0.00,,,0.00,weatherlink.com 1.10,2013-09-27 06:41:00,
2013-09-27 02:56:00,77.7,74.0,29.84,SE,127,0.0,1.0,87,0.00,,,0.00,weatherlink.com 1.10,2013-09-27 06:56:00,
2013-09-27 03:11:00,77.8,74.0,29.84,SE,146,0.0,1.0,87,0.00,,,0.00,weatherlink.com 1.10,2013-09-27 07:11:00,
2013-09-27 03:26:00,77.3,74.0,29.83,SE,139,1.0,1.0,88,0.00,,,0.00,weatherlink.com 1.10,2013-09-27 07:26:00,
2013-09-27 03:41:00,77.3,73.0,29.83,SE,138,0.0,1.0,87,0.00,,,0.00,weatherlink.com 1.10,2013-09-27 07:41:00,
2013-09-27 03:56:00,77.1,73.0,29.83,SE,133,0.0,1.0,87,0.00,,,0.00,weatherlink.com 1.10,2013-09-27 07:56:00,
2013-09-27 04:11:00,77.0,73.0,29.83,SE,132,0.0,1.0,88,0.00,,,0.00,weatherlink.com 1.10,2013-09-27 08:11:00,
2013-09-27 04:26:00,76.8,73.0,29.83,SE,133,0.0,1.0,88,0.00,,,0.00,weatherlink.com 1.10,2013-09-27 08:26:00,
2013-09-27 04:41:00,76.6,73.0,29.84,SE,132,0.0,1.0,89,0.00,,,0.00,weatherlink.com 1.10,2013-09-27 08:41:00,
2013-09-27 04:57:00,76.8,73.0,29.85,SE,132,0.0,1.0,89,0.00,,,0.00,weatherlink.com 1.10,2013-09-27 08:57:00,
2013-09-27 05:12:00,76.7,73.0,29.85,SE,133,0.0,0.0,89,0.00,,,0.00,weatherlink.com 1.10,2013-09-27 09:12:00,
2013-09-27 05:27:00,76.6,73.0,29.85,SE,133,0.0,0.0,89,0.00,,,0.00,weatherlink.com 1.10,2013-09-27 09:27:00,
2013-09-27 05:42:00,77.0,74.0,29.86,SE,133,0.0,0.0,89,0.00,,,0.00,weatherlink.com 1.10,2013-09-27 09:42:00,
2013-09-27 05:57:00,77.0,74.0,29.86,SE,133,0.0,1.0,89,0.00,,,0.00,weatherlink.com 1.10,2013-09-27 09:57:00,
2013-09-27 06:12:00,76.6,74.0,29.86,SE,133,0.0,1.0,90,0.00,,,0.00,weatherlink.com 1.10,2013-09-27 10:12:00,
2013-09-27 06:27:00,76.3,74.0,29.87,SE,133,0.0,0.0,91,0.00,,,0.00,weatherlink.com 1.10,2013-09-27 10:27:00,
2013-09-27 06:42:00,77.1,74.0,29.87,SE,132,0.0,1.0,91,0.00,,,0.00,weatherlink.com 1.10,2013-09-27 10:42:00,
2013-09-27 06:57:00,79.4,75.0,29.88,ESE,102,0.0,1.0,87,0.00,,,0.00,weatherlink.com 1.10,2013-09-27 10:57:00,
2013-09-27 07:12:00,81.9,76.0,29.87,SE,129,0.0,1.0,82,0.00,,,0.00,weatherlink.com 1.10,2013-09-27 11:12:00,
2013-09-27 07:27:00,82.9,77.0,29.87,SSE,163,0.0,1.0,81,0.00,,,0.00,weatherlink.com 1.10,2013-09-27 11:27:00,
2013-09-27 07:42:00,83.0,76.0,29.88,ESE,102,0.0,1.0,80,0.00,,,0.00,weatherlink.com 1.10,2013-09-27 11:42:00,
2013-09-27 07:57:00,86.4,77.0,29.88,SE,142,2.0,4.0,73,0.00,,,0.00,weatherlink.com 1.10,2013-09-27 11:57:00,
2013-09-27 08:12:00,87.7,77.0,29.88,SSE,147,1.0,3.0,71,0.00,,,0.00,weatherlink.com 1.10,2013-09-27 12:12:00,
2013-09-27 08:27:00,87.4,77.0,29.89,ENE,78,2.0,4.0,71,0.00,,,0.00,weatherlink.com 1.10,2013-09-27 12:27:00,
2013-09-27 08:42:00,87.5,77.0,29.89,SE,124,0.0,3.0,70,0.00,,,0.00,weatherlink.com 1.10,2013-09-27 12:42:00,
2013-09-27 08:57:00,89.2,76.0,29.89,SE,139,1.0,6.0,66,0.00,,,0.00,weatherlink.com 1.10,2013-09-27 12:57:00,
2013-09-27 09:12:00,89.3,76.0,29.89,SE,143,2.0,6.0,64,0.00,,,0.00,weatherlink.com 1.10,2013-09-27 13:12:00,
2013-09-27 09:27:00,89.6,75.0,29.89,South,181,2.0,4.0,62,0.00,,,0.00,weatherlink.com 1.10,2013-09-27 13:27:00,
2013-09-27 09:42:00,90.0,75.0,29.89,ESE,117,2.0,6.0,61,0.00,,,0.00,weatherlink.com 1.10,2013-09-27 13:42:00,
2013-09-27 09:57:00,91.7,75.0,29.89,SE,131,1.0,7.0,58,0.00,,,0.00,weatherlink.com 1.10,2013-09-27 13:57:00,
2013-09-27 10:12:00,92.5,75.0,29.89,South,179,3.0,6.0,56,0.00,,,0.00,weatherlink.com 1.10,2013-09-27 14:12:00,
2013-09-27 10:27:00,93.1,75.0,29.89,SE,143,1.0,5.0,55,0.00,,,0.00,weatherlink.com 1.10,2013-09-27 14:27:00,
2013-09-27 10:42:00,93.8,74.0,29.89,SE,126,9.0,9.0,53,0.00,,,0.00,weatherlink.com 1.10,2013-09-27 14:42:00,
2013-09-27 10:57:00,93.7,75.0,29.89,SE,143,2.0,8.0,54,0.00,,,0.00,weatherlink.com 1.10,2013-09-27 14:57:00,
2013-09-27 11:12:00,94.8,73.0,29.88,SSE,164,4.0,5.0,50,0.00,,,0.00,weatherlink.com 1.10,2013-09-27 15:12:00,
2013-09-27 11:27:00,94.7,74.0,29.87,South,176,4.0,8.0,52,0.00,,,0.00,weatherlink.com 1.10,2013-09-27 15:27:00,
2013-09-27 11:43:00,95.9,75.0,29.86,SSE,153,2.0,6.0,51,0.00,,,0.00,weatherlink.com 1.10,2013-09-27 15:43:00,
2013-09-27 11:58:00,94.9,75.0,29.86,SE,124,6.0,7.0,53,0.00,,,0.00,weatherlink.com 1.10,2013-09-27 15:58:00,
2013-09-27 12:13:00,95.1,75.0,29.85,SE,138,2.0,8.0,53,0.00,,,0.00,weatherlink.com 1.10,2013-09-27 16:13:00,
2013-09-27 12:28:00,96.3,75.0,29.84,SSE,150,2.0,7.0,50,0.00,,,0.00,weatherlink.com 1.10,2013-09-27 16:28:00,
2013-09-27 12:43:00,96.0,76.0,29.84,SSW,192,1.0,8.0,53,0.00,,,0.00,weatherlink.com 1.10,2013-09-27 16:43:00,
2013-09-27 12:58:00,96.3,75.0,29.83,ESE,110,4.0,8.0,51,0.00,,,0.00,weatherlink.com 1.10,2013-09-27 16:58:00,
2013-09-27 13:13:00,96.0,75.0,29.82,SSE,155,3.0,8.0,51,0.00,,,0.00,weatherlink.com 1.10,2013-09-27 17:13:00,
2013-09-27 13:28:00,95.5,75.0,29.81,SE,133,2.0,10.0,51,0.00,,,0.00,weatherlink.com 1.10,2013-09-27 17:28:00,
2013-09-27 13:43:00,94.7,76.0,29.81,ESE,120,3.0,12.0,54,0.00,,,0.00,weatherlink.com 1.10,2013-09-27 17:43:00,
2013-09-27 13:58:00,95.7,75.0,29.81,South,186,3.0,5.0,52,0.00,,,0.00,weatherlink.com 1.10,2013-09-27 17:58:00,
2013-09-27 14:13:00,94.9,75.0,29.80,SSE,162,1.0,6.0,52,0.00,,,0.00,weatherlink.com 1.10,2013-09-27 18:13:00,
2013-09-27 14:28:00,95.2,75.0,29.79,SE,131,5.0,8.0,53,0.00,,,0.00,weatherlink.com 1.10,2013-09-27 18:28:00,
2013-09-27 14:43:00,95.7,76.0,29.79,SE,146,3.0,5.0,53,0.00,,,0.00,weatherlink.com 1.10,2013-09-27 18:43:00,
2013-09-27 14:58:00,95.2,75.0,29.79,SSE,153,3.0,9.0,52,0.00,,,0.00,weatherlink.com 1.10,2013-09-27 18:58:00,
2013-09-27 15:13:00,95.1,75.0,29.78,SE,142,3.0,10.0,53,0.00,,,0.00,weatherlink.com 1.10,2013-09-27 19:13:00,
2013-09-27 15:28:00,94.9,75.0,29.78,South,172,3.0,9.0,52,0.00,,,0.00,weatherlink.com 1.10,2013-09-27 19:28:00,
2013-09-27 15:43:00,94.0,74.0,29.78,SSE,158,3.0,9.0,53,0.00,,,0.00,weatherlink.com 1.10,2013-09-27 19:43:00,
2013-09-27 15:58:00,93.7,75.0,29.78,SSE,150,2.0,8.0,54,0.00,,,0.00,weatherlink.com 1.10,2013-09-27 19:58:00,
2013-09-27 16:13:00,93.9,75.0,29.78,SE,145,1.0,8.0,54,0.00,,,0.00,weatherlink.com 1.10,2013-09-27 20:13:00,
2013-09-27 16:28:00,93.0,74.0,29.79,SW,219,2.0,8.0,54,0.00,,,0.00,weatherlink.com 1.10,2013-09-27 20:28:00,
2013-09-27 16:43:00,93.3,74.0,29.78,SSE,167,2.0,7.0,54,0.00,,,0.00,weatherlink.com 1.10,2013-09-27 20:43:00,
2013-09-27 16:58:00,91.8,74.0,29.78,SE,136,2.0,7.0,57,0.00,,,0.00,weatherlink.com 1.10,2013-09-27 20:58:00,
2013-09-27 17:13:00,91.2,75.0,29.78,SSE,159,3.0,8.0,60,0.00,,,0.00,weatherlink.com 1.10,2013-09-27 21:13:00,
2013-09-27 17:28:00,90.0,74.0,29.79,SE,142,5.0,10.0,60,0.00,,,0.00,weatherlink.com 1.10,2013-09-27 21:28:00,
2013-09-27 17:43:00,88.6,74.0,29.79,SE,143,4.0,7.0,62,0.00,,,0.00,weatherlink.com 1.10,2013-09-27 21:43:00,
2013-09-27 17:58:00,87.3,74.0,29.79,South,187,5.0,7.0,65,0.00,,,0.00,weatherlink.com 1.10,2013-09-27 21:58:00,
2013-09-27 18:13:00,86.3,75.0,29.80,SSW,200,2.0,8.0,68,0.00,,,0.00,weatherlink.com 1.10,2013-09-27 22:13:00,
2013-09-27 18:28:00,85.8,75.0,29.80,SSW,200,2.0,6.0,70,0.00,,,0.00,weatherlink.com 1.10,2013-09-27 22:28:00,
2013-09-27 18:43:00,85.2,75.0,29.81,South,187,1.0,8.0,71,0.00,,,0.00,weatherlink.com 1.10,2013-09-27 22:43:00,
2013-09-27 18:58:00,84.8,75.0,29.81,SSW,197,5.0,9.0,73,0.00,,,0.00,weatherlink.com 1.10,2013-09-27 22:58:00,
2013-09-27 19:13:00,84.3,75.0,29.82,South,172,1.0,9.0,74,0.00,,,0.00,weatherlink.com 1.10,2013-09-27 23:13:00,
2013-09-27 19:28:00,84.0,75.0,29.82,SE,143,4.0,5.0,74,0.00,,,0.00,weatherlink.com 1.10,2013-09-27 23:28:00,
2013-09-27 19:43:00,83.8,75.0,29.83,South,170,3.0,8.0,75,0.00,,,0.00,weatherlink.com 1.10,2013-09-27 23:43:00,
2013-09-27 19:58:00,83.6,75.0,29.83,SE,134,1.0,7.0,76,0.00,,,0.00,weatherlink.com 1.10,2013-09-27 23:58:00,
2013-09-27 20:13:00,83.4,75.0,29.83,SSE,156,1.0,6.0,76,0.00,,,0.00,weatherlink.com 1.10,2013-09-28 00:13:00,
2013-09-27 20:28:00,83.3,75.0,29.84,SE,135,3.0,4.0,77,0.00,,,0.00,weatherlink.com 1.10,2013-09-28 00:28:00,
2013-09-27 20:43:00,83.3,75.0,29.85,South,172,0.0,5.0,77,0.00,,,0.00,weatherlink.com 1.10,2013-09-28 00:43:00,
2013-09-27 20:58:00,83.2,75.0,29.86,SSE,166,2.0,6.0,77,0.00,,,0.00,weatherlink.com 1.10,2013-09-28 00:58:00,
2013-09-27 21:13:00,83.2,76.0,29.86,ESE,112,0.0,7.0,78,0.00,,,0.00,weatherlink.com 1.10,2013-09-28 01:13:00,
2013-09-27 21:28:00,83.0,76.0,29.87,South,181,5.0,6.0,78,0.00,,,0.00,weatherlink.com 1.10,2013-09-28 01:28:00,
2013-09-27 21:58:00,82.2,75.0,29.87,SSE,166,0.0,3.0,78,0.00,,,0.00,weatherlink.com 1.10,2013-09-28 01:58:00,
2013-09-27 22:13:00,82.0,75.0,29.88,SSE,160,2.0,4.0,79,0.00,,,0.00,weatherlink.com 1.10,2013-09-28 02:13:00,
2013-09-27 22:28:00,82.1,75.0,29.88,SE,139,1.0,3.0,78,0.00,,,0.00,weatherlink.com 1.10,2013-09-28 02:28:00,
2013-09-27 22:43:00,82.1,75.0,29.88,ESE,110,0.0,4.0,79,0.00,,,0.00,weatherlink.com 1.10,2013-09-28 02:43:00,
2013-09-27 22:58:00,82.2,75.0,29.89,SE,132,0.0,2.0,79,0.00,,,0.00,weatherlink.com 1.10,2013-09-28 02:58:00,
2013-09-27 23:13:00,82.4,75.0,29.89,SE,145,1.0,2.0,79,0.00,,,0.00,weatherlink.com 1.10,2013-09-28 03:13:00,
2013-09-27 23:28:00,82.4,75.0,29.89,West,259,0.0,2.0,79,0.00,,,0.00,weatherlink.com 1.10,2013-09-28 03:28:00,
2013-09-27 23:44:00,81.8,75.0,29.89,WSW,250,0.0,0.0,80,0.00,,,0.00,weatherlink.com 1.10,2013-09-28 03:44:00,
2013-09-27 23:59:00,81.4,75.0,29.89,WSW,256,0.0,1.0,82,0.00,,,0.00,weatherlink.com 1.10,2013-09-28 03:59:00,